Regional Weather Roundup
Issued by NWS

Home | Current Version | Previous Version | Text Only | Print | Product List | Glossary Off
Versions: 1 2 3 4 5 6 7 8 9 10 11 12 13 14 15 16 17 18 19 20 21 22 23 24 25 26 27 28 29 30 31 32 33 34 35 36 37 38 39 40 41 42 43 44 45 46 47 48 49 50

312
ASUS44 KJAN 201910
RWRMS

MISSISSIPPI HOURLY WEATHER ROUNDUP
NATIONAL WEATHER SERVICE JACKSON MS
100 PM CST SAT DEC 20 2014

NOTE: "FAIR: INDICATES FEW OR NO CLOUDS BELOW 12,000 FEET WITH NO
SIGNIFICANT WEATHER AND/OR OBSTRUCTIONS TO VISIBILITY.

MSZ001>002-007>008-010>013-018>021-025>028-034>036-202000-
NORTHWEST MISSISSIPPI

CITY           SKY/WX    TMP DP  RH WIND       PRES   REMARKS
CLARKSDALE     CLOUDY    50  37  62 CALM      30.23F
CLEVELAND      FAIR      51  39  63 E6        30.22F
GREENWOOD      SUNNY     54  36  50 VRB7      30.20F
GREENVILLE     SUNNY     52  39  61 NE10      30.20F
GRENADA        FAIR      52  36  54 CALM      30.22F
OLIVE BRANCH   PTSUNNY   46  34  61 N7        30.23F
OXFORD         FAIR      50  32  50 N5        30.22F
TUNICA         CLOUDY    46  36  66 N5        30.24F
$$

MSZ003>006-009-014>017-022>024-029>033-037>039-202000-
NORTHEAST MISSISSIPPI

CITY           SKY/WX    TMP DP  RH WIND       PRES   REMARKS
COLUMBUS AFB   SUNNY     53  36  51 VRB6      30.20F
CORINTH        FAIR      50  32  50 VRB8      30.21F
GOLDN TRIANGLE SUNNY     54  37  54 NE9       30.19F
STARKVILLE     FAIR      52  36  54 N6        30.20F
TUPELO         SUNNY     51  32  48 NE6       30.21F
$$

MSZ040-058-202000-
CENTRAL MISSISSIPPI

CITY           SKY/WX    TMP DP  RH WIND       PRES   REMARKS
JACKSON INTL   SUNNY     54  42  64 N8        30.17F
JACKSON HAWKNS MOSUNNY   53  41  63 E10       30.17
MERIDIAN KEY   CLOUDY    52  41  66 NE9       30.17F
MERIDIAN NAS   CLOUDY    51  41  68 N7        30.18F
RAYMOND        FAIR      55  50  82 NE6       30.17F
VICKSBURG      SUNNY     56  42  59 N10       30.19F
$$

MSZ059>079-202000-
SOUTH MISSISSIPPI

CITY           SKY/WX    TMP DP  RH WIND       PRES   REMARKS
HATTIESBURG    CLOUDY    51  45  79 N9        30.16F
MCCOMB         CLOUDY    48  44  86 N8        30.15F
NATCHEZ        SUNNY     55  43  62 NE8       30.16F
PINE BELT      CLOUDY    50  43  76 NE9       30.16F
$$

MSZ080>082-202000-
COASTAL MISSISSIPPI

CITY           SKY/WX    TMP DP  RH WIND       PRES   REMARKS
BAY ST LOUIS   CLOUDY    54  46  76 N7        30.11F
BILOXI         CLOUDY    52  50  91 NE12      30.10F
PASCAGOULA     CLOUDY    51  48  89 N14       30.10F
GULFPORT       CLOUDY    52  47  83 N12       30.10F
$$



USA.gov is the U.S. government's official web portal to all federal, state and local government web resources and services.